Time,TemperatureF,DewpointF,PressureIn,WindDirection,WindDirectionDegrees,WindSpeedMPH,WindSpeedGustMPH,Humidity,HourlyPrecipIn,Conditions,Clouds,dailyrainin,SoftwareType,DateUTC
2013-05-16 00:00:00,50.9,48.3,29.87,SSW,203,0.0,0.0,91,0.02,,,0.00,WUHU216HW,2013-05-16 07:00:00,
2013-05-16 00:05:00,50.9,48.3,29.87,SSW,203,0.0,0.0,91,0.02,,,0.00,WUHU216HW,2013-05-16 07:05:00,
2013-05-16 00:30:00,50.8,48.2,29.86,North,0,0.0,0.0,91,0.01,,,0.00,WUHU216HW,2013-05-16 07:30:00,
2013-05-16 00:35:00,50.8,48.2,29.86,North,0,0.0,0.0,91,0.01,,,0.00,WUHU216HW,2013-05-16 07:35:00,
2013-05-16 01:00:00,50.6,48.0,29.86,North,0,0.0,0.0,91,0.00,,,0.00,WUHU216HW,2013-05-16 08:00:00,
2013-05-16 01:05:00,50.6,48.0,29.86,North,0,0.0,0.0,91,0.00,,,0.00,WUHU216HW,2013-05-16 08:05:00,
2013-05-16 01:30:00,50.8,48.2,29.86,North,0,0.0,0.0,91,0.00,,,0.00,WUHU216HW,2013-05-16 08:30:00,
2013-05-16 01:35:00,50.8,48.2,29.86,North,0,0.0,0.0,91,0.00,,,0.00,WUHU216HW,2013-05-16 08:35:00,
2013-05-16 02:00:00,50.8,48.4,29.85,NE,45,0.0,0.0,92,0.00,,,0.00,WUHU216HW,2013-05-16 09:00:00,
2013-05-16 02:05:00,50.8,48.4,29.85,NE,45,0.0,0.0,92,0.00,,,0.00,WUHU216HW,2013-05-16 09:05:00,
2013-05-16 02:30:00,50.8,48.4,29.85,NE,45,0.0,0.0,92,0.00,,,0.00,WUHU216HW,2013-05-16 09:30:00,
2013-05-16 02:35:00,50.8,48.4,29.85,NE,45,0.0,0.0,92,0.00,,,0.00,WUHU216HW,2013-05-16 09:35:00,
2013-05-16 03:00:00,50.8,48.2,29.84,NE,45,0.0,0.0,91,0.00,,,0.00,WUHU216HW,2013-05-16 10:00:00,
2013-05-16 03:05:00,50.8,48.2,29.84,NE,45,0.0,0.0,91,0.00,,,0.00,WUHU216HW,2013-05-16 10:05:00,
2013-05-16 03:30:00,50.4,48.1,29.83,NE,45,0.0,0.0,92,0.00,,,0.00,WUHU216HW,2013-05-16 10:30:00,
2013-05-16 03:35:00,50.4,48.1,29.83,NE,45,0.0,0.0,92,0.00,,,0.00,WUHU216HW,2013-05-16 10:35:00,
2013-05-16 04:00:00,50.6,48.2,29.83,NNE,23,0.0,0.0,92,0.00,,,0.00,WUHU216HW,2013-05-16 11:00:00,
2013-05-16 04:05:00,50.6,48.2,29.83,NNE,23,0.0,0.0,92,0.00,,,0.00,WUHU216HW,2013-05-16 11:05:00,
2013-05-16 04:30:00,50.4,47.8,29.82,NNE,23,0.0,0.0,91,0.00,,,0.00,WUHU216HW,2013-05-16 11:30:00,
2013-05-16 04:35:00,50.4,47.8,29.82,NNE,23,0.0,0.0,91,0.00,,,0.00,WUHU216HW,2013-05-16 11:35:00,
2013-05-16 05:00:00,50.6,48.2,29.82,NNE,23,0.0,0.0,92,0.00,,,0.00,WUHU216HW,2013-05-16 12:00:00,
2013-05-16 05:05:00,50.6,48.2,29.82,NNE,23,0.0,0.0,92,0.00,,,0.00,WUHU216HW,2013-05-16 12:05:00,
2013-05-16 05:30:00,50.6,48.2,29.82,NNE,23,0.0,0.0,92,0.00,,,0.00,WUHU216HW,2013-05-16 12:30:00,
2013-05-16 05:35:00,50.6,48.2,29.82,NNE,23,0.0,0.0,92,0.00,,,0.00,WUHU216HW,2013-05-16 12:35:00,
2013-05-16 06:00:00,50.8,48.4,29.82,NNE,23,0.0,0.0,92,0.00,,,0.00,WUHU216HW,2013-05-16 13:00:00,
2013-05-16 06:05:00,50.8,48.4,29.82,NNE,23,0.0,0.0,92,0.00,,,0.00,WUHU216HW,2013-05-16 13:05:00,
2013-05-16 06:30:00,50.9,48.6,29.82,NNE,23,0.0,0.0,92,0.00,,,0.00,WUHU216HW,2013-05-16 13:30:00,
2013-05-16 06:35:00,50.9,48.6,29.82,NNE,23,0.0,0.0,92,0.00,,,0.00,WUHU216HW,2013-05-16 13:35:00,
2013-05-16 07:00:00,52.2,49.9,29.82,NNE,23,0.0,0.0,92,0.00,,,0.00,WUHU216HW,2013-05-16 14:00:00,
2013-05-16 07:05:00,52.2,49.9,29.82,NNE,23,0.0,0.0,92,0.00,,,0.00,WUHU216HW,2013-05-16 14:05:00,
2013-05-16 07:30:00,53.3,51.3,29.82,WSW,248,0.4,0.4,93,0.00,,,0.00,WUHU216HW,2013-05-16 14:30:00,
2013-05-16 07:35:00,53.3,51.3,29.82,WSW,248,0.4,0.4,93,0.00,,,0.00,WUHU216HW,2013-05-16 14:35:00,
2013-05-16 08:00:00,54.7,52.4,29.82,NW,315,0.0,0.0,92,0.00,,,0.00,WUHU216HW,2013-05-16 15:00:00,
2013-05-16 08:05:00,54.7,52.4,29.82,NW,315,0.0,0.0,92,0.00,,,0.00,WUHU216HW,2013-05-16 15:05:00,
2013-05-16 08:30:00,55.8,53.2,29.82,ESE,113,0.0,0.0,91,0.00,,,0.00,WUHU216HW,2013-05-16 15:30:00,
2013-05-16 08:35:00,55.8,53.2,29.82,ESE,113,0.0,0.0,91,0.00,,,0.00,WUHU216HW,2013-05-16 15:35:00,
2013-05-16 09:00:00,60.8,55.4,29.81,NE,45,1.3,1.3,82,0.00,,,0.00,WUHU216HW,2013-05-16 16:00:00,
2013-05-16 09:05:00,60.8,55.4,29.81,NE,45,1.3,1.3,82,0.00,,,0.00,WUHU216HW,2013-05-16 16:05:00,
2013-05-16 09:30:00,64.6,53.8,29.81,North,0,0.2,0.2,68,0.00,,,0.00,WUHU216HW,2013-05-16 16:30:00,
2013-05-16 09:35:00,64.6,53.8,29.81,North,0,0.2,0.2,68,0.00,,,0.00,WUHU216HW,2013-05-16 16:35:00,
2013-05-16 10:00:00,60.3,52.7,29.81,NNE,23,2.5,2.5,76,0.00,,,0.00,WUHU216HW,2013-05-16 17:00:00,
2013-05-16 10:05:00,60.3,52.7,29.81,NNE,23,2.5,2.5,76,0.00,,,0.00,WUHU216HW,2013-05-16 17:05:00,
2013-05-16 10:30:00,62.1,52.3,29.80,NNE,23,4.0,4.0,70,0.00,,,0.00,WUHU216HW,2013-05-16 17:30:00,
2013-05-16 10:35:00,62.1,52.3,29.80,NNE,23,4.0,4.0,70,0.00,,,0.00,WUHU216HW,2013-05-16 17:35:00,
2013-05-16 11:00:00,63.4,52.2,29.80,NNW,338,1.3,1.3,67,0.00,,,0.00,WUHU216HW,2013-05-16 18:00:00,
2013-05-16 11:05:00,63.4,52.2,29.80,NNW,338,1.3,1.3,67,0.00,,,0.00,WUHU216HW,2013-05-16 18:05:00,
2013-05-16 11:30:00,65.2,53.9,29.79,NNE,23,4.9,4.9,67,0.00,,,0.00,WUHU216HW,2013-05-16 18:30:00,
2013-05-16 11:35:00,65.2,53.9,29.79,NNE,23,4.9,4.9,67,0.00,,,0.00,WUHU216HW,2013-05-16 18:35:00,
2013-05-16 12:00:00,67.5,52.7,29.78,North,0,7.4,7.4,59,0.00,,,0.00,WUHU216HW,2013-05-16 19:00:00,
2013-05-16 12:05:00,67.5,52.7,29.78,North,0,7.4,7.4,59,0.00,,,0.00,WUHU216HW,2013-05-16 19:05:00,
2013-05-16 12:30:00,67.9,52.0,29.77,North,0,2.9,2.9,57,0.00,,,0.00,WUHU216HW,2013-05-16 19:30:00,
2013-05-16 12:35:00,67.9,52.0,29.77,North,0,2.9,2.9,57,0.00,,,0.00,WUHU216HW,2013-05-16 19:35:00,
2013-05-16 12:59:00,69.8,51.4,29.77,NNW,338,2.0,2.0,52,0.00,,,0.00,WUHU216HW,2013-05-16 19:59:00,
2013-05-16 13:00:00,69.8,51.4,29.77,NNW,338,2.0,2.0,52,0.00,,,0.00,WUHU216HW,2013-05-16 20:00:00,
2013-05-16 13:05:00,69.8,51.4,29.77,NNW,338,2.0,2.0,52,0.00,,,0.00,WUHU216HW,2013-05-16 20:05:00,
2013-05-16 13:30:00,72.0,54.4,29.75,NW,315,6.0,6.0,54,0.00,,,0.00,WUHU216HW,2013-05-16 20:30:00,
2013-05-16 13:35:00,72.0,54.4,29.75,NW,315,6.0,6.0,54,0.00,,,0.00,WUHU216HW,2013-05-16 20:35:00,
2013-05-16 13:59:00,72.9,53.6,29.75,NE,45,4.7,4.7,51,0.00,,,0.00,WUHU216HW,2013-05-16 20:59:00,
2013-05-16 14:00:00,72.9,53.6,29.75,NE,45,4.7,4.7,51,0.00,,,0.00,WUHU216HW,2013-05-16 21:00:00,
2013-05-16 14:05:00,72.9,53.6,29.75,NE,45,4.7,4.7,51,0.00,,,0.00,WUHU216HW,2013-05-16 21:05:00,
2013-05-16 14:30:00,72.7,53.5,29.75,SE,135,1.1,1.1,51,0.00,,,0.00,WUHU216HW,2013-05-16 21:30:00,
2013-05-16 14:35:00,72.7,53.5,29.75,SE,135,1.1,1.1,51,0.00,,,0.00,WUHU216HW,2013-05-16 21:35:00,
2013-05-16 14:59:00,72.4,53.2,29.73,WSW,248,1.1,1.1,51,0.00,,,0.00,WUHU216HW,2013-05-16 21:59:00,
2013-05-16 15:00:00,72.4,53.2,29.73,WSW,248,1.1,1.1,51,0.00,,,0.00,WUHU216HW,2013-05-16 22:00:00,
2013-05-16 15:05:00,72.4,53.2,29.73,WSW,248,1.1,1.1,51,0.00,,,0.00,WUHU216HW,2013-05-16 22:05:00,
2013-05-16 15:30:00,73.6,52.0,29.73,NNE,23,2.7,2.7,47,0.00,,,0.00,WUHU216HW,2013-05-16 22:30:00,
2013-05-16 15:35:00,73.6,52.0,29.73,NNE,23,2.7,2.7,47,0.00,,,0.00,WUHU216HW,2013-05-16 22:35:00,
2013-05-16 15:59:00,74.3,52.1,29.72,North,0,1.6,1.6,46,0.00,,,0.00,WUHU216HW,2013-05-16 22:59:00,
2013-05-16 16:00:00,74.3,52.1,29.72,North,0,1.6,1.6,46,0.00,,,0.00,WUHU216HW,2013-05-16 23:00:00,
2013-05-16 16:05:00,74.3,52.1,29.72,North,0,1.6,1.6,46,0.00,,,0.00,WUHU216HW,2013-05-16 23:05:00,
2013-05-16 16:30:00,76.3,52.7,29.71,West,270,2.2,2.2,44,0.00,,,0.00,WUHU216HW,2013-05-16 23:30:00,
2013-05-16 16:35:00,76.3,52.7,29.71,West,270,2.2,2.2,44,0.00,,,0.00,WUHU216HW,2013-05-16 23:35:00,
2013-05-16 16:59:00,76.1,51.9,29.70,NNW,338,4.3,4.3,43,0.00,,,0.00,WUHU216HW,2013-05-16 23:59:00,
2013-05-16 17:00:00,76.1,51.9,29.70,NNW,338,4.3,4.3,43,0.00,,,0.00,WUHU216HW,2013-05-17 00:00:00,
2013-05-16 17:05:00,76.1,51.9,29.70,NNW,338,4.3,4.3,43,0.00,,,0.00,WUHU216HW,2013-05-17 00:05:00,
2013-05-16 17:30:00,75.2,50.0,29.70,ENE,68,0.9,0.9,41,0.00,,,0.00,WUHU216HW,2013-05-17 00:30:00,
2013-05-16 17:35:00,75.2,50.0,29.70,ENE,68,0.9,0.9,41,0.00,,,0.00,WUHU216HW,2013-05-17 00:35:00,
2013-05-16 17:59:00,74.7,48.1,29.70,WNW,293,1.8,1.8,39,0.00,,,0.00,WUHU216HW,2013-05-17 00:59:00,
2013-05-16 18:00:00,74.7,48.1,29.70,WNW,293,1.8,1.8,39,0.00,,,0.00,WUHU216HW,2013-05-17 01:00:00,
2013-05-16 18:05:00,74.7,48.1,29.70,WNW,293,1.8,1.8,39,0.00,,,0.00,WUHU216HW,2013-05-17 01:05:00,
2013-05-16 18:30:00,74.5,48.7,29.70,North,0,1.6,1.6,40,0.00,,,0.00,WUHU216HW,2013-05-17 01:30:00,
2013-05-16 18:35:00,74.5,48.7,29.70,North,0,1.6,1.6,40,0.00,,,0.00,WUHU216HW,2013-05-17 01:35:00,
2013-05-16 18:59:00,70.9,50.2,29.71,SSW,203,3.6,3.6,48,0.00,,,0.00,WUHU216HW,2013-05-17 01:59:00,
2013-05-16 19:00:00,70.9,50.2,29.71,SSW,203,3.6,3.6,48,0.00,,,0.00,WUHU216HW,2013-05-17 02:00:00,
2013-05-16 19:05:00,70.9,50.2,29.71,SSW,203,3.6,3.6,48,0.00,,,0.00,WUHU216HW,2013-05-17 02:05:00,
2013-05-16 19:30:00,66.6,50.9,29.73,SSE,158,1.1,1.1,57,0.00,,,0.00,WUHU216HW,2013-05-17 02:30:00,
2013-05-16 19:35:00,66.6,50.9,29.73,SSE,158,1.1,1.1,57,0.00,,,0.00,WUHU216HW,2013-05-17 02:35:00,
2013-05-16 19:59:00,63.0,49.8,29.75,SSE,158,2.9,2.9,62,0.00,,,0.00,WUHU216HW,2013-05-17 02:59:00,
2013-05-16 20:00:00,63.0,49.8,29.75,SSE,158,2.9,2.9,62,0.00,,,0.00,WUHU216HW,2013-05-17 03:00:00,
2013-05-16 20:05:00,63.0,49.8,29.75,SSE,158,2.9,2.9,62,0.00,,,0.00,WUHU216HW,2013-05-17 03:05:00,
2013-05-16 20:30:00,60.8,50.7,29.76,SSW,203,4.0,4.0,69,0.00,,,0.00,WUHU216HW,2013-05-17 03:30:00,
2013-05-16 20:35:00,60.8,50.7,29.76,SSW,203,4.0,4.0,69,0.00,,,0.00,WUHU216HW,2013-05-17 03:35:00,
2013-05-16 20:59:00,58.5,50.9,29.77,SSW,203,0.4,0.4,76,0.00,,,0.00,WUHU216HW,2013-05-17 03:59:00,
2013-05-16 21:00:00,58.5,50.9,29.77,SSW,203,0.4,0.4,76,0.00,,,0.00,WUHU216HW,2013-05-17 04:00:00,
2013-05-16 21:01:00,58.5,50.9,29.77,SSW,203,0.4,0.4,76,0.00,,,0.00,WUHU216HW,2013-05-17 04:01:00,
2013-05-16 21:06:00,58.5,50.9,29.77,SSW,203,0.4,0.4,76,0.00,,,0.00,WUHU216HW,2013-05-17 04:06:00,
2013-05-16 21:30:00,56.9,51.4,29.78,SSW,203,3.1,3.1,82,0.00,,,0.00,WUHU216HW,2013-05-17 04:30:00,
2013-05-16 21:35:00,56.9,51.4,29.78,SSW,203,3.1,3.1,82,0.00,,,0.00,WUHU216HW,2013-05-17 04:35:00,
2013-05-16 21:59:00,56.2,51.3,29.79,South,180,2.0,2.0,84,0.00,,,0.00,WUHU216HW,2013-05-17 04:59:00,
2013-05-16 22:00:00,56.2,51.3,29.79,South,180,2.0,2.0,84,0.00,,,0.00,WUHU216HW,2013-05-17 05:00:00,
2013-05-16 22:05:00,56.2,51.3,29.79,South,180,2.0,2.0,84,0.00,,,0.00,WUHU216HW,2013-05-17 05:05:00,
2013-05-16 22:29:00,55.8,51.7,29.79,South,180,1.8,1.8,86,0.00,,,0.00,WUHU216HW,2013-05-17 05:29:00,
2013-05-16 22:30:00,55.8,51.7,29.79,South,180,1.8,1.8,86,0.00,,,0.00,WUHU216HW,2013-05-17 05:30:00,
2013-05-16 22:35:00,55.8,51.7,29.79,South,180,1.8,1.8,86,0.00,,,0.00,WUHU216HW,2013-05-17 05:35:00,
2013-05-16 22:59:00,55.6,51.1,29.80,South,180,0.0,0.0,85,0.00,,,0.00,WUHU216HW,2013-05-17 05:59:00,
2013-05-16 23:00:00,55.6,51.1,29.80,South,180,0.0,0.0,85,0.00,,,0.00,WUHU216HW,2013-05-17 06:00:00,
2013-05-16 23:05:00,55.6,51.1,29.80,South,180,0.0,0.0,85,0.00,,,0.00,WUHU216HW,2013-05-17 06:05:00,
2013-05-16 23:30:00,55.1,50.0,29.80,SE,135,1.8,1.8,83,0.00,,,0.00,WUHU216HW,2013-05-17 06:30:00,
2013-05-16 23:35:00,55.1,50.0,29.80,SE,135,1.8,1.8,83,0.00,,,0.00,WUHU216HW,2013-05-17 06:35:00,